This is the latest recevied weather packets stored in our database for station/object SR9WXJ. If no packets are shown the sender has not sent any weather packets the latest 1 day(s).
| Time | Temp. | Humidity | Pressure | Rain* | Wind** | Luminosity | Snow |
|---|---|---|---|---|---|---|---|
| 1778005711 | 18.33° C | 100% | 789.9 hPa | - | 0.89 m/s, 354° | - | - |
| 1778005400 | 18.89° C | 100% | 789.9 hPa | - | 0.89 m/s, 32° | - | - |
| 1778005100 | 19.44° C | 100% | 789.9 hPa | - | 1.34 m/s, 119° | - | - |
| 1778004789 | 19.44° C | 100% | 789.9 hPa | - | 0.89 m/s, 82° | - | - |
| 1778004479 | 19.44° C | 100% | 789.9 hPa | - | 0.89 m/s, 134° | - | - |
| 1778004168 | 19.44° C | 100% | 789.9 hPa | - | 1.34 m/s, 165° | - | - |
| 1778003858 | 20° C | 100% | 789.9 hPa | - | 1.34 m/s, 80° | - | - |
| 1778003548 | 20.56° C | 100% | 789.9 hPa | - | 1.79 m/s, 136° | - | - |
| 1778002938 | 21.11° C | 100% | 789.9 hPa | - | 1.34 m/s, 156° | - | - |
| 1778002627 | 21.67° C | 100% | 789.9 hPa | - | 1.34 m/s, 135° | - | - |
| 1778002316 | 22.22° C | 100% | 789.9 hPa | - | 1.34 m/s, 149° | - | - |
| 1778002005 | 22.22° C | 100% | 789.9 hPa | - | 1.34 m/s, 174° | - | - |
| 1778001705 | 22.78° C | 100% | 789.9 hPa | - | 1.34 m/s, 165° | - | - |
| 1778001395 | 22.78° C | 100% | 789.9 hPa | - | 1.34 m/s, 147° | - | - |
| 1778001084 | 23.33° C | 100% | 789.9 hPa | - | 2.68 m/s, 174° | - | - |
| 1778000774 | 23.33° C | 100% | 789.9 hPa | - | 1.34 m/s, 188° | - | - |
| 1778000463 | 23.33° C | 100% | 789.9 hPa | - | 1.79 m/s, 155° | - | - |
| 1778000153 | 23.33° C | 100% | 789.9 hPa | - | 1.79 m/s, 169° | - | - |
| 1777999853 | 23.89° C | 100% | 789.9 hPa | - | 2.24 m/s, 155° | - | - |
| 1777999542 | 23.89° C | 100% | 789.9 hPa | - | 1.79 m/s, 157° | - | - |
| 1777999231 | 23.89° C | 100% | 789.9 hPa | - | 1.34 m/s, 176° | - | - |
| 1777998921 | 23.33° C | 100% | 789.9 hPa | - | 1.79 m/s, 160° | - | - |
| 1777998610 | 23.33° C | 100% | 789.9 hPa | - | 0.89 m/s, 126° | - | - |
| 1777998311 | 23.89° C | 100% | 789.9 hPa | - | 1.34 m/s, 169° | - | - |
| 1777998000 | 23.89° C | 100% | 789.9 hPa | - | 1.34 m/s, 138° | - | - |
* Rain since midnight (hover to see other rain measurements)
** Current wind speed in m/s (hover to see current wind gust speed)